KI4BIY Weather Reports


Display with metric or nautical units.
time (UTC)temp
F
wind
direction
speed
MPH
gust
MPH
rain 1hr
in
rain 24hr
in
rain mn
in
humidity
%
barometer
mb
20260906115943 75 11 0.0 0.0 0.00 0.00 0.00 95 1012.4
20260906115438 75 322 0.0 0.0 0.00 0.00 0.00 95 1012.3
20260906114939 75 56 0.0 0.0 0.00 0.00 0.00 95 1012.3
20260906114438 75 262 0.0 0.0 0.00 0.00 0.00 95 1012.3
20260906113934 75 262 0.0 0.0 0.00 0.00 0.00 95 1012.1
20260906113433 75 289 0.0 0.0 0.00 0.00 0.00 95 1012.1
20260906112928 76 290 0.0 0.0 0.00 0.00 0.00 94 1011.9
20260906112424 76 290 0.0 0.0 0.00 0.00 0.00 94 1011.7
20260906111919 76 290 0.0 0.0 0.00 0.00 0.00 94 1011.6
20260906111419 76 290 0.0 0.0 0.00 0.00 0.00 94 1011.7
20260906110914 76 290 0.0 0.0 0.00 0.00 0.00 94 1011.2
20260906110409 76 290 0.0 0.0 0.00 0.00 0.00 94 1011.4
20260906105908 76 290 0.0 0.0 0.00 0.00 0.00 94 1011.4
20260906105404 76 289 0.0 0.0 0.00 0.00 0.00 95 1011.4
20260906104900 76 289 0.0 0.0 0.00 0.00 0.00 94 1011.5
20260906104358 76 288 0.0 0.0 0.00 0.00 0.00 94 1011.4
20260906103857 76 288 0.0 0.0 0.00 0.00 0.00 95 1011.4
20260906103355 76 288 0.0 0.0 0.00 0.00 0.00 95 1011.3
20260906102852 76 288 0.0 0.0 0.00 0.00 0.00 95 1011.3
20260906102350 76 288 0.0 0.0 0.00 0.00 0.00 95 1011.1
20260906101846 76 288 0.0 0.0 0.00 0.00 0.00 95 1011.3
20260906101341 76 288 0.0 0.0 0.00 0.00 0.00 95 1011.6
20260906100836 76 288 0.0 0.0 0.00 0.00 0.00 95 1011.5
20260906100335 76 288 0.0 0.0 0.00 0.00 0.00 95 1011.4
20260906095831 76 288 0.0 0.0 0.00 0.00 0.00 95 1011.5
20260906095326 76 288 0.0 0.0 0.00 0.00 0.00 96 1011.5
20260906094826 76 288 0.0 0.0 0.00 0.00 0.00 96 1011.3
20260906094321 76 288 0.0 0.0 0.00 0.00 0.00 96 1011.3
20260906093817 76 288 0.0 0.0 0.00 0.00 0.00 96 1011.8
20260906093313 76 288 0.0 0.0 0.00 0.00 0.00 95 1011.4
20260906092808 76 288 0.0 0.0 0.00 0.00 0.00 95 1011.4
20260906092308 76 288 0.0 0.0 0.00 0.00 0.00 95 1011.4
20260906091803 77 291 0.0 0.0 0.00 0.00 0.00 95 1011.5
20260906091259 77 291 0.0 0.0 0.00 0.00 0.00 95 1011.4
20260906090755 77 291 0.0 0.0 0.00 0.00 0.00 95 1011.2
20260906090254 77 291 0.0 0.0 0.00 0.00 0.00 95 1011.4
20260906085754 77 291 0.0 0.0 0.00 0.00 0.00 95 1011.4
20260906085253 77 291 0.0 0.0 0.00 0.00 0.00 95 1011.1
20260906084748 77 291 0.0 0.0 0.00 0.00 0.00 95 1011.0
20260906084248 77 291 0.0 0.0 0.00 0.00 0.00 95 1011.1
20260906083743 77 291 0.0 0.0 0.00 0.00 0.00 96 1011.2
20260906083239 77 283 0.0 0.0 0.00 0.00 0.00 96 1011.3
20260906082733 77 267 0.0 0.0 0.00 0.00 0.00 96 1011.0
20260906082228 76 256 0.0 0.0 0.00 0.00 0.00 95 1011.1
20260906081724 76 256 0.0 0.0 0.00 0.00 0.00 95 1011.0
20260906081219 77 256 0.0 0.0 0.00 0.00 0.00 95 1011.0
20260906080716 76 256 0.0 0.0 0.00 0.00 0.00 95 1010.9
20260906080212 76 254 0.0 0.0 0.00 0.00 0.00 95 1010.9
20260906075712 76 254 0.0 0.0 0.00 0.00 0.00 95 1010.9
20260906075206 76 254 0.0 0.0 0.00 0.00 0.00 95 1010.9
20260906074701 76 254 0.0 0.0 0.00 0.00 0.00 95 1010.8
20260906074200 76 254 0.0 0.0 0.00 0.00 0.00 94 1011.0
20260906073656 77 285 0.0 0.0 0.00 0.00 0.00 94 1010.8
20260906073151 77 285 0.0 0.0 0.00 0.00 0.00 95 1011.0
20260906072646 77 285 0.0 0.0 0.00 0.00 0.00 95 1010.7
20260906072142 77 285 0.0 0.0 0.00 0.00 0.00 95 1010.7
20260906071638 77 285 0.0 0.0 0.00 0.00 0.00 94 1010.9
20260906071138 77 285 0.0 0.0 0.00 0.00 0.00 94 1011.0
20260906070635 77 285 0.0 0.0 0.00 0.00 0.00 94 1010.9
20260906070130 77 285 0.0 0.0 0.00 0.00 0.00 94 1011.0
20260906065630 77 285 0.0 0.0 0.00 0.00 0.00 94 1010.9
20260906065125 77 285 0.0 0.0 0.00 0.00 0.00 93 1010.9
20260906064620 77 285 0.0 0.0 0.00 0.00 0.00 93 1010.9
20260906064115 77 286 0.0 0.0 0.00 0.00 0.00 92 1010.7
20260906063616 77 286 0.0 0.0 0.00 0.00 0.00 93 1010.9
20260906063112 78 286 0.0 0.0 0.00 0.00 0.00 93 1010.9
20260906062607 77 286 0.0 0.0 0.00 0.00 0.00 93 1010.9
20260906062106 78 286 0.0 0.0 0.00 0.00 0.00 92 1011.1
20260906061603 77 286 0.0 0.0 0.00 0.00 0.00 91 1011.1
20260906061102 78 286 0.0 0.0 0.00 0.00 0.00 90 1011.3
20260906060558 78 286 0.0 0.0 0.00 0.00 0.00 90 1011.4
20260906060055 78 286 0.0 0.0 0.00 0.00 0.00 90 1011.3
20260906055551 78 286 0.0 0.0 0.00 0.00 0.00 90 1011.2
20260906055046 78 286 0.0 0.0 0.00 0.00 0.00 89 1011.2
20260906054541 78 286 0.0 0.0 0.00 0.00 0.00 89 1011.4
20260906054036 78 286 0.0 0.0 0.00 0.00 0.00 90 1011.3
20260906053532 78 286 0.0 0.0 0.00 0.00 0.00 91 1011.4
20260906053028 78 286 0.0 0.0 0.00 0.00 0.00 91 1011.5
20260906052523 78 287 0.0 0.0 0.00 0.00 0.00 92 1011.5
20260906052021 78 274 0.0 0.0 0.00 0.00 0.00 92 1011.3
20260906051516 78 273 0.0 0.0 0.00 0.00 0.00 92 1011.3
20260906051011 78 273 0.0 0.0 0.00 0.00 0.00 92 1011.6
20260906050506 78 273 0.0 0.0 0.00 0.00 0.00 92 1011.3
20260906050006 78 273 0.0 0.0 0.00 0.00 0.00 91 1011.2
20260906045504 78 273 0.0 0.0 0.00 0.00 0.00 91 1011.2
20260906045000 78 273 0.0 0.0 0.00 0.00 0.00 91 1011.3
20260906044455 78 273 0.0 0.0 0.00 0.00 0.00 91 1011.2
20260906043951 79 273 0.0 0.0 0.00 0.00 0.00 91 1011.3
20260906043446 79 273 0.0 0.0 0.00 0.00 0.00 91 1011.0
20260906042942 79 273 0.0 0.0 0.00 0.00 0.00 91 1011.3
20260906042441 79 273 0.0 0.0 0.00 0.00 0.00 91 1011.3
20260906041936 79 273 0.0 0.0 0.00 0.00 0.00 91 1011.4
20260906041433 79 273 0.0 0.0 0.00 0.00 0.00 90 1011.1
20260906040932 79 273 0.0 0.0 0.00 0.00 0.00 89 1011.1
20260906040427 79 273 0.0 0.0 0.00 0.00 0.00 89 1011.2
20260906035922 79 273 0.0 0.0 0.00 0.00 0.00 89 1011.1
20260906035418 80 273 0.0 0.0 0.00 0.00 0.00 88 1011.2
20260906034913 80 273 0.0 0.0 0.00 0.00 0.00 88 1011.2
20260906034413 80 273 0.0 0.0 0.00 0.00 0.00 88 1011.1
20260906033909 80 273 0.0 0.0 0.00 0.00 0.00 88 1011.2
20260906033408 80 273 0.0 0.0 0.00 0.00 0.00 88 1011.2
20260906032904 80 273 0.0 0.0 0.00 0.00 0.00 88 1011.2
20260906032401 80 273 0.0 0.0 0.00 0.00 0.00 88 1011.3
20260906031855 80 273 0.0 0.0 0.00 0.00 0.00 87 1011.4
20260906031350 80 273 0.0 0.0 0.00 0.00 0.00 88 1011.2
20260906030845 80 273 0.0 0.0 0.00 0.00 0.00 88 1011.2
20260906030340 80 273 0.0 0.0 0.00 0.00 0.00 88 1011.2
20260906025835 80 273 0.0 0.0 0.00 0.00 0.00 87 1011.3
20260906025328 80 273 0.0 0.0 0.00 0.00 0.00 86 1011.1
20260906024828 81 273 0.0 0.0 0.00 0.00 0.00 86 1011.4
20260906024327 81 274 0.0 0.0 0.00 0.00 0.00 85 1011.1
20260906023823 81 274 0.0 0.0 0.00 0.00 0.00 86 1011.0
20260906023318 81 274 0.0 0.0 0.00 0.00 0.00 85 1010.9
20260906022814 81 274 0.0 0.0 0.00 0.00 0.00 85 1011.1
20260906022308 81 274 0.0 0.0 0.00 0.00 0.00 85 1011.0
20260906021805 82 274 0.0 0.0 0.00 0.00 0.00 84 1010.8
20260906021304 82 274 0.0 0.0 0.00 0.00 0.00 84 1010.7
20260906020759 82 274 0.0 0.0 0.00 0.00 0.00 84 1010.7
20260906020258 82 274 0.0 0.0 0.00 0.00 0.00 83 1010.9
20260906015758 82 274 0.0 0.0 0.00 0.00 0.00 83 1010.5
20260906015256 82 274 0.0 0.0 0.00 0.00 0.00 83 1010.7
20260906014751 82 274 0.0 0.0 0.00 0.00 0.00 83 1010.6
20260906014247 82 274 0.0 0.0 0.00 0.00 0.00 82 1010.4
20260906013743 83 274 0.0 0.0 0.00 0.00 0.00 82 1010.4
20260906013243 83 274 0.0 0.0 0.00 0.00 0.00 82 1010.6
20260906012738 83 274 0.0 0.0 0.00 0.00 0.00 81 1010.3
20260906012233 83 274 0.0 0.0 0.00 0.00 0.00 81 1010.3
20260906011729 84 274 0.0 0.0 0.00 0.00 0.00 80 1010.6
20260906011228 84 274 0.0 0.0 0.00 0.00 0.00 80 1010.3
20260906010724 84 274 0.0 0.0 0.00 0.00 0.00 80 1010.2
20260906010220 84 274 0.0 0.0 0.00 0.00 0.00 79 1010.0
20260906005715 85 274 0.0 0.0 0.00 0.00 0.00 78 1010.2
20260906005214 85 274 0.0 0.0 0.00 0.00 0.00 78 1010.0
20260906004713 85 274 0.0 0.0 0.00 0.00 0.00 76 1009.8
20260906004208 86 274 0.0 0.0 0.00 0.00 0.00 76 1010.4
20260906003704 86 274 0.0 0.0 0.00 0.00 0.00 76 1010.1
20260906003200 86 274 0.0 0.0 0.00 0.00 0.00 75 1010.1
20260906002659 87 274 0.0 0.0 0.00 0.00 0.00 74 1010.1
20260906002154 87 274 0.0 0.0 0.00 0.00 0.00 73 1010.1
20260906001650 87 274 0.0 0.0 0.00 0.00 0.00 72 1010.0
20260906001149 88 274 0.0 0.0 0.00 0.00 0.00 71 1010.0
20260906000645 88 274 0.0 0.0 0.00 0.00 0.00 71 1010.1
20260906000140 89 274 0.0 0.0 0.00 0.00 0.00 69 1009.9
20260905235639 89 274 0.0 0.0 0.00 0.00 0.00 68 1009.9
20260905235134 90 274 0.0 0.0 0.00 0.00 0.00 67 1010.2
20260905234630 90 274 0.0 0.0 0.00 0.00 0.00 64 1010.0
20260905234125 91 274 0.0 0.0 0.00 0.00 0.00 64 1010.0
20260905233620 91 274 0.0 0.0 0.00 0.00 0.00 64 1010.0
20260905233120 91 274 0.0 0.0 0.00 0.00 0.00 62 1010.2
20260905232616 91 275 0.0 0.0 0.00 0.00 0.00 62 1010.5
20260905232112 92 275 0.0 0.0 0.00 0.00 0.00 61 1010.3
20260905231611 92 267 0.0 0.0 0.00 0.00 0.00 61 1010.1
20260905231108 93 267 0.0 0.0 0.00 0.00 0.00 59 1010.0
20260905230603 93 265 0.0 0.0 0.00 0.00 0.00 56 1010.3
20260905225600 95 242 0.0 0.0 0.00 0.00 0.00 52 1010.1
20260905225056 95 241 0.0 0.0 0.00 0.00 0.00 52 1010.2
20260905224555 95 241 0.0 0.0 0.00 0.00 0.00 52 1010.4
20260905224055 95 241 0.0 0.0 0.00 0.00 0.00 52 1010.1
20260905223553 95 231 0.0 0.0 0.00 0.00 0.00 52 1010.1
20260905223048 95 69 0.0 0.0 0.00 0.00 0.00 52 1010.1
20260905222548 95 69 0.0 0.0 0.00 0.00 0.00 54 1010.3
20260905222044 95 306 0.0 0.0 0.00 0.00 0.00 53 1010.3
20260905221540 95 226 0.0 0.0 0.00 0.00 0.00 53 1010.1
20260905221036 95 233 0.0 0.0 0.00 0.00 0.00 53 1010.3
20260905220531 95 229 0.0 1.0 0.00 0.00 0.00 55 1010.2
20260905220027 95 240 0.0 0.0 0.00 0.00 0.00 55 1010.4
20260905215526 95 226 0.0 0.0 0.00 0.00 0.00 54 1010.5
20260905215023 95 224 1.0 1.0 0.00 0.00 0.00 53 1010.5
20260905214518 95 94 1.0 1.0 0.00 0.00 0.00 53 1010.4
20260905214013 95 224 0.0 1.0 0.00 0.00 0.00 52 1010.5
20260905213509 95 190 0.0 1.0 0.00 0.00 0.00 52 1010.3
20260905213004 93 224 1.0 1.0 0.00 0.00 0.00 55 1010.7
20260905212459 93 278 0.0 0.0 0.00 0.00 0.00 57 1010.7
20260905211958 93 255 0.0 0.0 0.00 0.00 0.00 55 1010.5
20260905211454 92 243 0.0 0.0 0.00 0.00 0.00 54 1010.4
20260905210949 91 201 2.0 2.0 0.00 0.00 0.00 57 1010.7
20260905210444 90 211 2.0 2.0 0.00 0.00 0.00 58 1010.8
20260905205944 88 210 1.0 2.0 0.00 0.00 0.00 64 1010.7
20260905205439 88 237 1.0 2.0 0.00 0.00 0.00 66 1011.3
20260905204938 89 236 2.0 2.0 0.00 0.00 0.00 66 1011.5
20260905204434 95 240 3.0 3.0 0.00 0.00 0.00 61 1011.3
20260905203933 96 233 1.0 1.0 0.00 0.00 0.00 52 1011.0
20260905203428 97 260 0.0 0.0 0.00 0.00 0.00 51 1011.2
20260905202923 98 80 2.0 3.0 0.00 0.00 0.00 49 1011.2
20260905202419 100 61 1.0 2.0 0.00 0.00 0.00 48 1011.0
20260905201914 99 36 1.0 2.0 0.00 0.00 0.00 46 1011.2
20260905201409 98 248 0.0 0.0 0.00 0.00 0.00 47 1011.1
20260905200909 96 203 3.0 3.0 0.00 0.00 0.00 49 1011.3
20260905200405 94 310 0.0 0.0 0.00 0.00 0.00 57 1011.3
20260905195903 94 310 0.0 0.0 0.00 0.00 0.00 58 1011.3
20260905195358 95 310 0.0 0.0 0.00 0.00 0.00 57 1011.3
20260905194855 95 310 0.0 0.0 0.00 0.00 0.00 55 1011.5
20260905194354 96 310 0.0 0.0 0.00 0.00 0.00 54 1011.6
20260905193853 96 309 0.0 0.0 0.00 0.00 0.00 54 1011.5
20260905193348 97 339 0.0 0.0 0.00 0.00 0.00 51 1011.7
20260905192844 99 335 0.0 0.0 0.00 0.00 0.00 49 1011.6
20260905192339 100 51 1.0 2.0 0.00 0.00 0.00 48 1011.8
20260905191839 103 286 1.0 1.0 0.00 0.00 0.00 44 1011.7
20260905191338 102 240 0.0 0.0 0.00 0.00 0.00 44 1011.7
20260905190837 101 269 0.0 1.0 0.00 0.00 0.00 45 1011.9
20260905190330 100 71 3.0 5.0 0.00 0.00 0.00 46 1012.0
20260905185829 101 194 1.0 2.0 0.00 0.00 0.00 46 1011.9
20260905185325 99 218 0.0 1.0 0.00 0.00 0.00 48 1012.3
20260905184824 98 313 1.0 1.0 0.00 0.00 0.00 52 1012.2
20260905184323 97 274 0.0 0.0 0.00 0.00 0.00 51 1012.5
20260905183821 99 322 0.0 0.0 0.00 0.00 0.00 51 1012.1
20260905183318 100 234 1.0 1.0 0.00 0.00 0.00 48 1012.5
20260905182818 100 61 1.0 1.0 0.00 0.00 0.00 48 1012.6
20260905182317 102 45 0.0 0.0 0.00 0.00 0.00 46 1012.1
20260905181813 100 16 0.0 1.0 0.00 0.00 0.00 46 1012.4
20260905181312 97 22 0.0 1.0 0.00 0.00 0.00 51 1012.4
20260905180811 98 294 0.0 1.0 0.00 0.00 0.00 52 1012.4
20260905180307 99 269 0.0 0.0 0.00 0.00 0.00 48 1012.3
20260905175801 99 333 0.0 0.0 0.00 0.00 0.00 49 1012.4
20260905175256 101 336 1.0 1.0 0.00 0.00 0.00 48 1012.8
20260905174752 101 190 2.0 3.0 0.00 0.00 0.00 47 1012.5
20260905174247 100 334 2.0 2.0 0.00 0.00 0.00 48 1012.7
20260905173743 98 324 0.0 0.0 0.00 0.00 0.00 54 1012.7
20260905173239 98 353 0.0 0.0 0.00 0.00 0.00 52 1012.7
20260905172738 100 278 0.0 1.0 0.00 0.00 0.00 49 1012.8
20260905172232 103 212 1.0 1.0 0.00 0.00 0.00 45 1012.8
20260905171729 101 52 0.0 1.0 0.00 0.00 0.00 47 1013.1
20260905171225 100 35 1.0 1.0 0.00 0.00 0.00 49 1012.9
20260905170721 101 105 1.0 2.0 0.00 0.00 0.00 47 1013.1
20260905170221 100 80 1.0 1.0 0.00 0.00 0.00 48 1013.1
20260905165721 100 41 1.0 1.0 0.00 0.00 0.00 50 1013.2
20260905165216 100 356 1.0 1.0 0.00 0.00 0.00 51 1013.3
20260905164716 101 82 1.0 2.0 0.00 0.00 0.00 49 1013.7
20260905164216 100 105 0.0 1.0 0.00 0.00 0.00 50 1013.5
20260905163712 100 337 1.0 1.0 0.00 0.00 0.00 53 1013.6
20260905163209 99 324 0.0 1.0 0.00 0.00 0.00 51 1013.5
20260905162704 99 42 1.0 2.0 0.00 0.00 0.00 52 1013.5
20260905162204 98 182 1.0 2.0 0.00 0.00 0.00 53 1013.7
20260905161659 98 49 2.0 2.0 0.00 0.00 0.00 53 1013.8
20260905161157 98 272 1.0 1.0 0.00 0.00 0.00 54 1013.4
20260905160656 98 343 1.0 2.0 0.00 0.00 0.00 54 1013.8
20260905160155 96 249 0.0 1.0 0.00 0.00 0.00 57 1013.6
20260905155650 96 334 1.0 1.0 0.00 0.00 0.00 59 1013.8
20260905155149 95 172 0.0 1.0 0.00 0.00 0.00 58 1014.1
20260905154643 95 344 1.0 2.0 0.00 0.00 0.00 60 1014.0
20260905154139 95 320 0.0 0.0 0.00 0.00 0.00 59 1013.8
20260905153635 95 337 1.0 1.0 0.00 0.00 0.00 59 1014.0
20260905153130 95 290 1.0 1.0 0.00 0.00 0.00 59 1013.9
20260905152625 94 289 1.0 1.0 0.00 0.00 0.00 63 1013.8
20260905152119 94 313 0.0 0.0 0.00 0.00 0.00 63 1013.9
20260905151614 94 281 1.0 1.0 0.00 0.00 0.00 62 1013.8
20260905151110 94 336 1.0 1.0 0.00 0.00 0.00 65 1014.0
20260905150605 93 222 0.0 0.0 0.00 0.00 0.00 63 1013.9
20260905150103 93 201 1.0 1.0 0.00 0.00 0.00 64 1013.9
20260905145556 92 104 1.0 1.0 0.00 0.00 0.00 66 1013.9
20260905145055 92 332 0.0 0.0 0.00 0.00 0.00 69 1014.0
20260905144550 90 332 0.0 0.0 0.00 0.00 0.00 68 1013.7
20260905144050 89 332 0.0 0.0 0.00 0.00 0.00 71 1013.8
20260905143549 88 332 0.0 0.0 0.00 0.00 0.00 72 1013.8
20260905143044 88 333 0.0 0.0 0.00 0.00 0.00 72 1013.8
20260905142543 87 231 0.0 0.0 0.00 0.00 0.00 72 1013.7
20260905142038 87 212 0.0 0.0 0.00 0.00 0.00 73 1013.9
20260905141532 86 338 0.0 0.0 0.00 0.00 0.00 75 1013.8
20260905141030 86 339 0.0 0.0 0.00 0.00 0.00 76 1013.6
20260905140529 85 335 0.0 0.0 0.00 0.00 0.00 79 1013.7
20260905140028 84 352 0.0 0.0 0.00 0.00 0.00 79 1013.7
20260905135524 84 352 0.0 0.0 0.00 0.00 0.00 80 1013.8
20260905135019 85 41 0.0 0.0 0.00 0.00 0.00 79 1013.7
20260905134514 86 41 0.0 0.0 0.00 0.00 0.00 77 1013.7
20260905134012 86 157 0.0 0.0 0.00 0.00 0.00 77 1013.8
20260905133508 85 39 0.0 0.0 0.00 0.00 0.00 79 1013.6
20260905133008 85 39 0.0 0.0 0.00 0.00 0.00 79 1013.5
20260905132503 84 39 0.0 0.0 0.00 0.00 0.00 81 1013.7
20260905132002 83 39 0.0 0.0 0.00 0.00 0.00 83 1013.4
20260905131458 82 39 0.0 0.0 0.00 0.00 0.00 85 1013.8
20260905130953 82 39 0.0 0.0 0.00 0.00 0.00 84 1013.5
20260905130452 82 39 0.0 0.0 0.00 0.00 0.00 85 1013.6
20260905125952 81 39 0.0 0.0 0.00 0.00 0.00 87 1013.6
20260905125447 80 39 0.0 0.0 0.00 0.00 0.00 88 1013.5
20260905124942 79 39 0.0 0.0 0.00 0.00 0.00 89 1013.4
20260905124440 79 50 0.0 0.0 0.00 0.00 0.00 89 1013.3
20260905123940 78 49 0.0 0.0 0.00 0.00 0.00 91 1013.4
20260905123437 77 49 0.0 0.0 0.00 0.00 0.00 94 1013.6
20260905122936 75 268 0.0 0.0 0.00 0.00 0.00 96 1013.4
20260905122436 75 268 0.0 0.0 0.00 0.00 0.00 96 1013.4
20260905121933 74 268 0.0 0.0 0.00 0.00 0.00 97 1013.4
20260905121428 74 269 0.0 0.0 0.00 0.00 0.00 98 1013.3
20260905120927 74 269 0.0 0.0 0.00 0.00 0.00 98 1013.3
20260905120422 74 272 0.0 0.0 0.00 0.00 0.00 98 1013.3